[[{"header":{"parameterUnit":"m.s-1","parameterCategory":1,"la1":30.2991,"la2":30.254,"lo1":-89.0895,"lo2":-89.0444,"dy":0.0017,"dx":0.0017,"nx":28,"ny":28,"refTime":"2025-12-25T03:00:00:Z","depth":0,"parameterNumber":2,"parameterNumberName":"U-component_of_WINDS"},"data":[0,0,0,0,0,0,0,0,0,0,0,0,0,0,0,0,0,0,0,0,0,0,0,0,0,0,0,0,0,0,0,0,0,0,0,0,0,0,0,0,0,0,0,0,0,0,0,0,0,0,0,0,0,0,0,0,0,0,0.8872,0.8873,0,0.8995,0.8997,0.8998,0.9052,0.9052,0.9051,0.9051,0.9178,0.9181,0.9185,0,0,0,0,0,0,0,0,0,0,0,0,0,0.8683,0.8686,0.8872,0.8874,0.8875,0.8995,0.8997,0.8998,0.9052,0.9052,0.9051,0.9051,0.9177,0.9181,0.9185,0,0,0,0,0,0,0,0,0,0,0,0,0,0.8782,0.8687,0.8872,0.8916,0.8921,0.8995,0.8997,0.8999,0.9052,0.9052,0.9051,0.9051,0.9175,0.918,0.9186,0.9224,0,0,0.9202,0.9204,0,0,0,0,0,0,0,0,0.8776,0.8789,0.8908,0.8913,0.8919,0.9008,0.8977,0.9074,0.9052,0.9002,0.9051,0.9051,0.9121,0.9131,0.9155,0.923,0.9235,0.9202,0.9206,0.9208,0.9209,0,0,0,0,0,0,0,0.8769,0.8784,0.8921,0.891,0.8917,0.893,0.8944,0.8995,0.9062,0.9007,0.9011,0.9025,0.9124,0.915,0.9158,0.9237,0.9202,0.9207,0.921,0.9212,0.9351,0.9351,0,0,0,0,0,0,0.8755,0.8777,0.8917,0.8925,0.8845,0.8934,0.8949,0.898,0.9062,0.9074,0.9025,0.9027,0.9141,0.9152,0.9163,0.9214,0.9208,0.9213,0.9216,0.935,0.9351,0.9352,0,0,0,0,0,0,0.8751,0.8767,0.8912,0.8852,0.8872,0.8937,0.8971,0.8982,0.9008,0.9075,0.9087,0.9038,0.9141,0.9155,0.9209,0.9219,0.9215,0.922,0.935,0.9351,0.9351,0.9315,0,0,0,0,0,0,0.8745,0.8765,0.878,0.8852,0.8875,0.8955,0.8972,0.8985,0.9017,0.902,0.9091,0.9103,0.9142,0.92,0.9214,0.9226,0.9224,0.9349,0.935,0.9351,0.9316,0.9315,0.9314,0,0,0,0,0,0.8738,0.8765,0.8781,0.8797,0.8895,0.8956,0.8969,0.9013,0.9017,0.9033,0.9077,0.91,0.9216,0.9205,0.9221,0.9235,0.9349,0.935,0.9351,0.9316,0.9315,0.9314,0,0,0,0,0,0,0.8693,0.8775,0.8794,0.8845,0.8893,0.8965,0.8986,0.901,0.9058,0.9059,0.9113,0.9128,0.9177,0.9212,0.9199,0.9277,0.9284,0.9288,0.9253,0.9252,0.9251,0.9242,0.9229,0,0,0,0,0,0.8689,0.8731,0.8801,0.8839,0.8863,0.892,0.8948,0.8978,0.903,0.9051,0.9098,0.9148,0.9195,0.9226,0.9273,0.9321,0.9338,0.9339,0.9338,0.9336,0.934,0.9368,0.9369,0.9355,0.9355,0.9355,0,0,0.8681,0.8731,0.8755,0.8831,0.8872,0.8915,0.8937,0.8981,0.9013,0.9058,0.9111,0.9147,0.9206,0.9257,0.9282,0.9287,0.9347,0.9338,0.9336,0.934,0.9369,0.9371,0.9372,0.9356,0.9356,0.9356,0,0,0.8688,0.873,0.8767,0.8808,0.8869,0.8907,0.8916,0.8984,0.901,0.9064,0.9099,0.9138,0.9219,0.9259,0.9291,0.9314,0.9337,0.9327,0.9322,0.9349,0.935,0.9352,0.936,0.9362,0.933,0.933,0.933,0,0.867,0.8736,0.8783,0.8826,0.8858,0.89,0.8938,0.8975,0.9049,0.9071,0.9076,0.9178,0.9221,0.9282,0.9287,0.9311,0.9323,0.932,0.9346,0.9348,0.935,0.9359,0.9362,0.9329,0.9329,0.9329,0.9329,0,0.8712,0.8757,0.8779,0.8849,0.8885,0.8924,0.8977,0.9008,0.9035,0.9072,0.9127,0.918,0.9239,0.9255,0.9282,0.9321,0.9322,0.9336,0.9344,0.9349,0.9358,0.9362,0.9326,0.9327,0.9327,0.9328,0,0,0.8694,0.879,0.8797,0.8829,0.89,0.8936,0.8978,0.9036,0.9061,0.911,0.9147,0.9214,0.9228,0.9263,0.9295,0.9319,0.9334,0.933,0.9332,0.9329,0.938,0.9369,0.9372,0.935,0.9351,0.9351,0.9375,0,0.8711,0.8788,0.8831,0.889,0.8932,0.8973,0.901,0.9057,0.9093,0.9135,0.9175,0.9222,0.9236,0.9258,0.9283,0.9326,0.9345,0.9325,0.9385,0.9386,0.9369,0.9377,0.9365,0.9385,0.9379,0.9379,0.938,0,0.8742,0.879,0.8853,0.892,0.8939,0.8971,0.9027,0.9066,0.9121,0.9146,0.9185,0.9217,0.9263,0.9268,0.9332,0.9318,0.9345,0.937,0.9372,0.9379,0.9383,0.9384,0.9392,0.9395,0.9386,0.9385,0.9385,0,0.8722,0.8804,0.8852,0.8879,0.8957,0.8979,0.9013,0.9067,0.9099,0.9149,0.917,0.9224,0.9253,0.9295,0.934,0.9339,0.94,0.9409,0.9422,0.9421,0.9434,0.9432,0.9446,0.945,0.945,0.945,0.945,0,0.8737,0.8774,0.8845,0.8874,0.8917,0.8967,0.9008,0.9045,0.9093,0.9131,0.9169,0.9204,0.9262,0.9304,0.934,0.9388,0.9401,0.9422,0.9432,0.9419,0.9416,0.9438,0.9437,0.9451,0.9451,0.9451,0.9451,0,0.8723,0.8772,0.8827,0.8897,0.8916,0.8944,0.9004,0.9035,0.9073,0.912,0.9134,0.9194,0.9246,0.9295,0.9364,0.9388,0.9436,0.9448,0.9418,0.9423,0.9434,0.9432,0.9462,0.9468,0.9468,0.9468,0.9467,0,0.873,0.8759,0.8832,0.886,0.8893,0.8938,0.897,0.902,0.9053,0.9118,0.9141,0.9195,0.9241,0.9321,0.9371,0.9424,0.9438,0.9445,0.9446,0.9433,0.9438,0.9436,0.9439,0.9443,0.9443,0.9443,0.9443,0,0.8736,0.8758,0.8804,0.8858,0.8896,0.8941,0.8988,0.9009,0.9068,0.9102,0.9155,0.9191,0.9261,0.9315,0.9373,0.9409,0.9436,0.9442,0.9448,0.9435,0.9417,0.9427,0.9414,0.9441,0.9441,0.9441,0.9441,0.9441,0.8733,0.8761,0.8816,0.8866,0.8906,0.8949,0.8981,0.9023,0.9068,0.9129,0.9156,0.9209,0.9264,0.9346,0.9381,0.9424,0.943,0.9439,0.9441,0.9442,0.944,0.9409,0.9434,0.9435,0.9435,0.9435,0.9435,0,0.8741,0.8779,0.8824,0.8888,0.8927,0.8949,0.9001,0.9032,0.9079,0.9127,0.9172,0.9233,0.9285,0.9339,0.9394,0.9418,0.9432,0.9431,0.943,0.9438,0.9431,0.942,0.9419,0.9419,0.9419,0.9419,0.9419,0.9419,0.875,0.8799,0.8828,0.8897,0.8935,0.8987,0.9016,0.9055,0.9094,0.916,0.9204,0.9239,0.929,0.9349,0.9398,0.9412,0.9431,0.9426,0.9444,0.9437,0.9438,0.9439,0.9429,0.943,0.943,0.9448,0.9448,0.9448]},{"header":{"parameterUnit":"m.s-1","parameterCategory":1,"la1":30.2991,"la2":30.254,"lo1":-89.0895,"lo2":-89.0444,"dy":0.0017,"dx":0.0017,"nx":28,"ny":28,"refTime":"2025-12-25T03:00:00:Z","depth":0,"parameterNumber":3,"parameterNumberName":"V-component_of_WINDS"},"data":[0,0,0,0,0,0,0,0,0,0,0,0,0,0,0,0,0,0,0,0,0,0,0,0,0,0,0,0,0,0,0,0,0,0,0,0,0,0,0,0,0,0,0,0,0,0,0,0,0,0,0,0,0,0,0,0,0,0,1.3801,1.3801,0,1.3806,1.3806,1.3806,1.3819,1.3819,1.382,1.382,1.3821,1.3821,1.3821,0,0,0,0,0,0,0,0,0,0,0,0,0,1.38,1.38,1.3801,1.3801,1.3801,1.3806,1.3806,1.3806,1.3819,1.3819,1.382,1.382,1.3821,1.3821,1.3821,0,0,0,0,0,0,0,0,0,0,0,0,0,1.3802,1.38,1.3801,1.3808,1.3809,1.3806,1.3806,1.3806,1.3819,1.3819,1.382,1.382,1.3822,1.3821,1.3821,1.381,0,0,1.382,1.382,0,0,0,0,0,0,0,0,1.3802,1.3802,1.3807,1.3808,1.3809,1.3812,1.3806,1.3808,1.3819,1.3815,1.382,1.382,1.3818,1.3818,1.3818,1.381,1.3811,1.382,1.382,1.3819,1.3819,0,0,0,0,0,0,0,1.3802,1.3802,1.3803,1.3807,1.3808,1.381,1.3811,1.3807,1.3814,1.3815,1.3816,1.3817,1.3818,1.3818,1.3818,1.3811,1.382,1.382,1.3819,1.3819,1.3796,1.3796,0,0,0,0,0,0,1.3801,1.3802,1.3803,1.3803,1.3806,1.381,1.3811,1.3811,1.3814,1.3815,1.3817,1.3818,1.3818,1.3818,1.3818,1.3807,1.3819,1.3819,1.3819,1.3797,1.3796,1.3796,0,0,0,0,0,0,1.3801,1.3801,1.3803,1.3803,1.3803,1.381,1.3809,1.3811,1.381,1.3815,1.3816,1.3815,1.3819,1.3818,1.3813,1.3807,1.3819,1.3819,1.3797,1.3796,1.3796,1.3784,0,0,0,0,0,0,1.3801,1.3801,1.3798,1.3803,1.3803,1.3798,1.3809,1.381,1.381,1.3812,1.3814,1.3815,1.3819,1.3813,1.3812,1.3807,1.3818,1.3798,1.3797,1.3796,1.3785,1.3783,1.3781,0,0,0,0,0,1.3801,1.3793,1.3797,1.3797,1.3799,1.3798,1.3798,1.3804,1.381,1.3806,1.3809,1.3815,1.3808,1.3812,1.3812,1.3806,1.3798,1.3797,1.3796,1.3785,1.3783,1.3781,0,0,0,0,0,0,1.3785,1.3794,1.3799,1.3792,1.3794,1.38,1.3795,1.3801,1.3801,1.3802,1.3808,1.3809,1.3802,1.3803,1.3808,1.3797,1.3804,1.3803,1.3796,1.3794,1.3792,1.3792,1.3818,0,0,0,0,0,1.3781,1.378,1.3787,1.3781,1.3782,1.3788,1.3788,1.3793,1.3795,1.3795,1.3798,1.3799,1.3797,1.3795,1.3794,1.3785,1.3786,1.3781,1.3779,1.3778,1.3776,1.3773,1.3771,1.3793,1.3793,1.3793,0,0,1.3772,1.3777,1.3776,1.3778,1.378,1.3778,1.3789,1.3786,1.3785,1.3794,1.379,1.3792,1.3793,1.3786,1.3783,1.3787,1.3771,1.3776,1.3775,1.3775,1.3772,1.377,1.3768,1.3792,1.3792,1.3792,0,0,1.3756,1.3759,1.3755,1.3757,1.3761,1.3766,1.3765,1.377,1.3772,1.3768,1.3776,1.3774,1.377,1.3771,1.3771,1.3757,1.3762,1.3756,1.3747,1.3743,1.3741,1.374,1.3735,1.3734,1.3755,1.3755,1.3755,0,1.3744,1.3743,1.3751,1.3749,1.375,1.376,1.3756,1.3757,1.376,1.376,1.3765,1.3762,1.3763,1.3757,1.3754,1.3753,1.3752,1.3756,1.3741,1.374,1.3739,1.3734,1.3732,1.3754,1.3754,1.3754,1.3754,0,1.3729,1.3728,1.3724,1.3728,1.3728,1.3725,1.3732,1.3731,1.3737,1.3741,1.3737,1.3739,1.3739,1.3738,1.3742,1.3733,1.3735,1.374,1.3748,1.3736,1.3732,1.373,1.3753,1.3753,1.3754,1.3754,0,0,1.3701,1.3712,1.371,1.3713,1.3719,1.3718,1.3715,1.3716,1.3715,1.3717,1.3715,1.3712,1.3718,1.3718,1.3722,1.3719,1.3709,1.3725,1.3725,1.3722,1.3699,1.3696,1.3694,1.3712,1.3712,1.3712,1.3699,0,1.3686,1.3683,1.3691,1.3686,1.3685,1.3696,1.3693,1.3696,1.37,1.37,1.3704,1.3702,1.3709,1.371,1.3707,1.3711,1.3704,1.3712,1.371,1.371,1.3709,1.3691,1.3687,1.3675,1.3698,1.3698,1.3697,0,1.3668,1.3671,1.3666,1.3673,1.3673,1.3671,1.3674,1.3673,1.3677,1.368,1.3681,1.3687,1.3684,1.3692,1.3688,1.3693,1.3693,1.3695,1.3695,1.3694,1.3703,1.3691,1.3671,1.367,1.3695,1.3695,1.3695,0,1.3649,1.3652,1.3649,1.3651,1.3659,1.3658,1.3661,1.3665,1.3666,1.3668,1.3668,1.3669,1.367,1.367,1.3676,1.3681,1.3672,1.368,1.3674,1.3674,1.3672,1.3672,1.3652,1.3671,1.3671,1.3671,1.3671,0,1.3632,1.3628,1.3641,1.364,1.3636,1.3646,1.3642,1.3646,1.365,1.3649,1.3657,1.3656,1.3664,1.3664,1.3669,1.3665,1.3665,1.3667,1.3669,1.3667,1.3667,1.3667,1.3668,1.3671,1.3671,1.3671,1.3671,0,1.361,1.3619,1.3617,1.3626,1.3628,1.3625,1.3632,1.3631,1.3636,1.3635,1.3635,1.3643,1.3643,1.365,1.365,1.3654,1.3648,1.3651,1.3647,1.3648,1.3643,1.3643,1.3622,1.362,1.3641,1.364,1.364,0,1.3598,1.3596,1.3605,1.3606,1.361,1.361,1.3612,1.3621,1.3622,1.3627,1.3625,1.3626,1.3628,1.3627,1.3633,1.3634,1.3637,1.3629,1.3637,1.3635,1.3637,1.3637,1.3637,1.3627,1.3627,1.3627,1.3627,0,1.3576,1.3581,1.3584,1.3588,1.359,1.3593,1.3596,1.3596,1.3607,1.3607,1.3608,1.361,1.3612,1.3613,1.3615,1.3618,1.3624,1.3625,1.3623,1.3621,1.362,1.3621,1.3643,1.3625,1.3625,1.3625,1.3625,1.3625,1.356,1.3559,1.3566,1.3568,1.3572,1.3576,1.3576,1.3582,1.3583,1.3587,1.3592,1.3593,1.3597,1.3601,1.3604,1.3604,1.3607,1.3605,1.3605,1.3605,1.3604,1.362,1.3604,1.3604,1.3604,1.3604,1.3604,0,1.3539,1.3544,1.3547,1.3553,1.3555,1.3562,1.3567,1.3568,1.3569,1.3573,1.3575,1.3577,1.3578,1.3584,1.3587,1.3586,1.3589,1.3586,1.3586,1.3587,1.36,1.3601,1.3584,1.3584,1.3584,1.3584,1.3584,1.3584,1.3528,1.3527,1.3533,1.3535,1.354,1.3542,1.3544,1.3548,1.3551,1.3553,1.3555,1.356,1.3565,1.3568,1.357,1.3572,1.3572,1.3568,1.3571,1.3583,1.3585,1.3587,1.3588,1.3568,1.3568,1.3558,1.3557,1.3557]}]]